EW2498 Weather Reports


time (UTC)temp
C
wind
direction
speed
KPH
gust
KPH
rain 1hr
cm
rain 24hr
cm
rain mn
cm
humidity
%
barometer
mb
20260505095305 26 196 3.2 8.0 0.00 0.10 0.00 80 1011.8
20260505093305 25 120 1.6 8.0 0.00 0.10 0.00 80 1011.5
20260505091805 25 217 3.2 8.0 0.00 0.10 0.00 80 1011.4
20260505090304 25 123 1.6 4.8 0.00 0.10 0.00 81 1011.3
20260505085805 25 123 1.6 4.8 0.00 0.10 0.00 81 1011.3
20260505085305 25 252 1.6 8.0 0.00 0.10 0.00 81 1011.2
20260505084804 25 191 1.6 3.2 0.00 0.10 0.00 81 1011.2
20260505084305 25 256 1.6 8.0 0.00 0.10 0.00 81 1011.0
20260505082305 25 166 1.6 3.2 0.00 0.10 0.00 81 1010.8
20260505081804 25 186 1.6 3.2 0.00 0.10 0.00 81 1010.8
20260505081304 25 229 3.2 9.7 0.00 0.10 0.00 81 1010.7
20260505080805 25 249 1.6 4.8 0.00 0.10 0.00 81 1010.7
20260505074305 25 222 3.2 9.7 0.00 0.10 0.00 81 1010.5
20260505073804 25 178 3.2 8.0 0.00 0.10 0.00 81 1010.5
20260505072305 25 268 0.0 3.2 0.00 0.10 0.00 81 1010.4
20260505071804 25 249 0.0 1.6 0.00 0.10 0.00 81 1010.4
20260505065804 25 188 0.0 0.0 0.00 0.15 0.00 81 1010.2
20260505063304 25 185 0.0 3.2 0.00 0.23 0.00 81 1010.3
20260505062804 25 163 1.6 3.2 0.00 0.23 0.00 81 1010.3
20260505062305 25 162 1.6 3.2 0.00 0.23 0.00 81 1010.3
20260505061804 25 161 3.2 3.2 0.00 0.23 0.00 81 1010.3
20260505061304 25 188 0.0 3.2 0.00 0.23 0.00 81 1010.2
20260505060805 25 205 1.6 3.2 0.00 0.23 0.00 81 1010.2
20260505055805 25 215 0.0 0.0 0.00 0.23 0.00 82 1010.1
20260505055304 25 274 1.6 3.2 0.00 0.23 0.00 82 1010.1
20260505054805 25 129 1.6 4.8 0.00 0.23 0.00 82 1010.1
20260505054304 25 163 1.6 8.0 0.00 0.23 0.00 82 1010.1
20260505053805 25 123 1.6 8.0 0.00 0.23 0.00 82 1010.2
20260505052305 26 176 3.2 4.8 0.00 0.23 0.00 82 1010.3
20260505051805 26 198 0.0 3.2 0.00 0.23 0.00 82 1010.4
20260505041305 26 192 3.2 11.3 0.00 0.25 0.00 83 1010.6
20260505040804 26 177 3.2 11.3 0.00 0.28 0.00 83 1010.7
20260505040304 26 169 4.8 12.9 0.00 0.28 0.00 83 1010.7
20260505035305 26 165 3.2 14.5 0.00 0.33 0.00 83 1010.9
20260505033805 26 201 1.6 3.2 0.00 0.43 0.00 83 1011.0
20260505033305 26 219 1.6 4.8 0.00 0.46 0.00 83 1011.2
20260505032805 26 226 3.2 8.0 0.00 0.46 0.00 83 1011.3
20260505032304 26 115 1.6 4.8 0.00 0.46 0.00 83 1011.4
20260505030810 26 115 1.6 8.0 0.00 0.46 0.00 83 1011.7
20260505024804 26 115 1.6 3.2 0.00 0.46 0.46 83 1012.0
20260505023305 26 115 3.2 4.8 0.00 0.46 0.46 83 1011.9
20260505021804 26 115 1.6 8.0 0.00 0.48 0.46 82 1012.1
20260505021304 26 279 1.6 4.8 0.00 0.48 0.46 82 1012.2
20260505020804 26 211 1.6 8.0 0.00 0.48 0.46 82 1012.3
20260505020305 26 215 0.0 0.0 0.00 0.48 0.46 82 1012.3
20260505013805 26 211 3.2 8.0 0.00 0.48 0.46 82 1012.4
20260505012305 26 228 0.0 0.0 0.00 0.48 0.46 81 1012.4
20260505011804 26 224 0.0 0.0 0.00 0.48 0.46 81 1012.4
20260505010304 26 216 1.6 3.2 0.00 0.48 0.46 81 1012.3
20260505005805 26 172 0.0 3.2 0.00 0.48 0.46 81 1012.3
20260505005305 26 242 1.6 4.8 0.00 0.48 0.46 81 1012.3
20260505004305 27 224 1.6 4.8 0.00 0.48 0.46 81 1012.3
20260505001804 27 225 3.2 8.0 0.00 0.48 0.46 80 1012.3
20260505000805 27 147 1.6 4.8 0.00 0.48 0.46 80 1012.2
20260504235804 27 122 1.6 3.2 0.00 0.48 0.46 79 1012.2
20260504234304 27 229 0.0 3.2 0.00 0.48 0.46 79 1011.9
20260504233305 27 266 1.6 4.8 0.00 0.48 0.46 79 1011.8
20260504231805 27 219 1.6 1.6 0.00 0.48 0.46 78 1011.6
20260504231304 27 212 0.0 1.6 0.00 0.48 0.46 78 1011.6
20260504230805 27 265 1.6 1.6 0.00 0.48 0.46 78 1011.5
20260504224805 28 266 1.6 8.0 0.00 0.48 0.46 77 1011.3
20260504224304 28 163 12.9 19.3 0.00 0.48 0.46 77 1011.2
20260504223805 28 155 12.9 20.9 0.00 0.48 0.46 77 1011.0
20260504221305 28 142 17.7 22.5 0.00 0.48 0.46 77 1010.7
20260504215305 28 147 20.9 25.7 0.00 0.48 0.46 76 1010.3
20260504213305 28 139 22.5 24.1 0.00 0.48 0.46 77 1010.1
20260504212805 28 137 20.9 24.1 0.00 0.48 0.46 76 1010.1
20260504212304 28 137 20.9 25.7 0.00 0.48 0.46 76 1010.1
20260504210805 28 136 20.9 24.1 0.00 0.48 0.46 76 1010.0
20260504210305 28 132 20.9 24.1 0.00 0.48 0.46 76 1009.9
20260504201804 28 132 20.9 22.5 0.00 0.48 0.46 75 1009.5
20260504200804 28 125 20.9 25.7 0.00 0.48 0.46 75 1009.5
20260504200304 28 120 22.5 24.1 0.00 0.48 0.46 75 1009.4
20260504194805 28 129 20.9 24.1 0.00 0.48 0.46 74 1009.2
20260504193805 28 127 22.5 24.1 0.00 0.48 0.46 74 1009.2
20260504193304 28 133 20.9 25.7 0.00 0.48 0.46 74 1009.2
20260504192804 28 124 20.9 22.5 0.00 0.48 0.46 73 1009.1
20260504191805 28 121 24.1 25.7 0.00 0.48 0.46 73 1009.0
20260504191304 28 123 22.5 25.7 0.00 0.48 0.46 73 1009.0
20260504185305 28 117 20.9 24.1 0.00 0.48 0.46 72 1009.0
20260504184805 28 116 20.9 25.7 0.00 0.48 0.46 73 1009.0
20260504183805 28 122 22.5 29.0 0.00 0.48 0.46 73 1009.0
20260504182804 28 112 24.1 25.7 0.00 0.48 0.46 73 1009.0
20260504181804 28 116 25.7 27.4 0.00 0.48 0.46 72 1009.0
20260504180304 28 117 25.7 27.4 0.00 0.48 0.46 73 1009.2
20260504175804 28 118 24.1 25.7 0.00 0.48 0.46 73 1009.1
20260504175305 28 118 24.1 25.7 0.00 0.48 0.46 73 1009.0
20260504173305 28 116 19.3 20.9 0.00 0.48 0.46 75 1009.2
20260504172305 28 120 17.7 20.9 0.00 0.48 0.46 75 1009.1
20260504171304 28 129 19.3 22.5 0.00 0.48 0.46 74 1009.2
20260504170804 28 133 20.9 22.5 0.00 0.48 0.46 75 1009.3
20260504160305 28 129 22.5 27.4 0.00 0.48 0.46 75 1010.3
20260504140305 27 166 14.5 27.4 0.00 0.41 0.38 78 1011.9
20260504130804 28 119 11.3 16.1 0.03 0.41 0.38 78 1011.9
20260504120304 27 138 16.1 20.9 0.00 0.38 0.36 79 1012.0
20260504110304 27 139 11.3 19.3 0.00 0.43 0.36 82 1011.6